CORAL

Last updated on Sun Apr 12 2026 00:02:13 GMT+0000 (Coordinated Universal Time)

1 67684U 98067YA 26100.72463346 .00091559 00000+0 10872-2 0 9993 2 67684 51.6280 271.0763 0014458 297.2912 62.6609 15.60291067 9785
UTC large
Height (km)
Speed (km/s)
/
Latitude / Longitude
Inclination (degrees)
Orbital Period (minutes)
Azimuth
Elevation
Range (km)
Doppler Factor

Next 0 passes for location: London (51.5072 / 0.1276)

Sorry there are no passes over London.
CORAL